Terminal Aerodrome Forecast
Issued by NWS Blacksburg, VA

Home | Current Version | Previous Version | Text Only | Print | Product List | Glossary On
Versions: 1 2 3 4 5 6 7 8 9 10 11 12 13 14 15 16 17 18 19 20 21 22 23 24
000
FTUS41 KRNK 272338
TAFDAN
TAF
KDAN 272338Z 2800/2824 19006KT P6SM SCT060 SCT250
     FM280200 VRB04KT P6SM SCT250
     FM281400 17004KT P6SM SCT100 SCT250
     FM281800 18005KT P6SM SCT060 BKN250=

USA.gov is the U.S. government's official web portal to all federal, state and local government web resources and services.